Location: Pensacola
(30.4142°N, 87.2155°W)
Time: 06:29:02
(UTC-05:00)

AO-109 - Visible Passes

Search period start: 05 June 2023 00:00
Search period end: 15 June 2023 00:00
Orbit: 441 x 460 km, 60.7° (Epoch: 05 June)

Date Brightness Start Highest point End Pass type
(mag) Time Alt. Az. Time Alt. Az. Time Alt. Az.
09 Jun ? 23:25:11 10° NNW 23:25:17 11° N 23:25:17 11° N visible
10 Jun ? 22:48:43 10° N 22:49:21 13° N 22:49:21 13° N visible
11 Jun ? 22:12:38 10° NNE 22:13:26 12° NNE 22:13:26 12° NNE visible
12 Jun ? 23:10:37 10° NW 23:11:07 13° NW 23:11:07 13° NW visible
13 Jun ? 22:33:34 10° NNW 22:35:12 25° NNW 22:35:12 25° NNW visible
14 Jun ? 21:56:39 10° NNW 21:59:17 35° NNE 21:59:17 35° NNE visible
